Location: Newark
(16.3678°N, 77.8722°E)
Time: 08:59:30
(UTC+00:00)

Altair - Visible Passes

Search period start: 13 December 2019 00:00
Search period end: 23 December 2019 00:00
Orbit: 1502 x 1682 km, 47.2° (Epoch: 12 December)

Date Brightness Start Highest point End Pass type
(mag) Time Alt. Az. Time Alt. Az. Time Alt. Az.
13 Dec 8.4 00:36:45 10° WNW 00:44:15 28° SW 00:51:56 10° S visible
13 Dec 7.9 13:33:46 10° SW 13:43:34 63° NW 13:50:38 20° NNE visible
13 Dec 9.3 15:44:12 10° WNW 15:48:41 16° NW 15:48:41 16° NW visible
13 Dec 7.7 22:14:55 56° NE 22:14:55 56° NE 22:23:50 10° ESE visible
14 Dec 8.2 00:12:59 16° WNW 00:19:07 32° SW 00:27:09 10° S visible
14 Dec 7.8 13:08:27 10° SW 13:18:22 69° NW 13:27:12 13° NE visible
14 Dec 9.1 15:18:14 10° WNW 15:24:20 18° NNW 15:25:15 18° NNW visible
14 Dec 8.1 21:51:38 44° E 21:51:38 44° E 21:58:30 10° ESE visible
14 Dec 8.1 23:49:41 24° W 23:54:00 36° SW 00:02:20 10° S visible
15 Dec 7.8 12:43:10 10° SW 12:53:10 76° NW 13:02:49 10° NE visible
15 Dec 9.1 14:52:22 10° WNW 14:58:58 20° NNW 15:01:45 18° N visible
15 Dec 8.7 21:28:20 31° E 21:28:20 31° E 21:33:09 10° ESE visible
15 Dec 7.9 23:26:24 35° W 23:28:53 41° SW 23:37:27 10° SSE visible
16 Dec 9.1 14:26:32 10° W 14:33:37 22° NW 14:38:13 16° N visible
16 Dec 9.2 21:05:01 20° E 21:05:01 20° E 21:07:44 10° ESE visible
16 Dec 7.7 23:03:04 45° WSW 23:03:46 46° SW 23:12:31 10° SSE visible
17 Dec 9.0 14:00:45 10° W 14:08:16 24° NW 14:14:40 13° N visible
17 Dec 9.6 20:41:40 12° ESE 20:41:40 12° ESE 20:42:18 10° ESE visible
17 Dec 7.7 22:39:44 50° SSW 22:39:44 50° SSW 22:47:34 10° SSE visible
18 Dec 9.0 13:35:02 10° W 13:42:57 27° NW 13:50:41 10° NNE visible
18 Dec 8.0 22:16:22 43° S 22:16:22 43° S 22:22:34 10° SSE visible
19 Dec 8.9 13:09:22 10° W 13:17:39 29° NW 13:25:43 10° NNE visible
19 Dec 8.5 21:52:58 33° SSE 21:52:58 33° SSE 21:57:32 10° SSE visible
20 Dec 8.8 12:43:45 10° W 12:52:20 32° NW 13:00:43 10° NNE visible
20 Dec 9.0 21:29:31 23° SSE 21:29:31 23° SSE 21:32:29 10° SSE visible
20 Dec 9.1 23:27:34 12° SW 23:27:34 12° SW 23:30:11 10° SW visible
21 Dec 9.4 21:06:02 16° SE 21:06:02 16° SE 21:07:23 10° SE visible
21 Dec 9.1 23:04:04 13° SW 23:04:04 13° SW 23:06:30 10° SSW visible
22 Dec 9.4 14:07:05 10° NNW 14:09:06 11° NNW 14:11:06 10° N visible
22 Dec 9.2 22:40:32 13° SSW 22:40:32 13° SSW 22:42:21 10° SSW visible
